Stations météo

réclame
Mon MeteoGroup
Ile Rousse, France (7753): Température de l'air & dewpoint: 14.11.2017 12:00:00 - 20.11.2017 12:00:00 (CET)Ile Rousse, France (7753): Vitesse du vent & gusts: 14.11.2017 12:00:00 - 20.11.2017 12:00:00 (CET)Ile Rousse, France (7753): Direction du vent: 14.11.2017 12:00:00 - 20.11.2017 12:00:00 (CET)Ile Rousse, France (7753): reduced air pressure: 14.11.2017 12:00:00 - 20.11.2017 12:00:00 (CET)Ile Rousse, France (7753): visibility: 14.11.2017 12:00:00 - 20.11.2017 12:00:00 (CET)Ile Rousse, France (7753): Quantités de précipitations: 14.11.2017 12:00:00 - 20.11.2017 12:00:00 (CET)
Date & Time tt [°C] td [°C] ff [km/h] ff [knt] fx [km/h] fx [knt] dd ppp [hPa] vv [km] rr [mm]
20.11.2017 12:00:00 15,4 8,6 14 8 24 13 W 1019,6 - 0,0
20.11.2017 11:00:00 15,4 8,8 7 4 15 8 W 1019,8 - 0,0
20.11.2017 10:00:00 13,4 7,2 6 4 22 12 W 1019,9 25 0,0
20.11.2017 09:00:00 12,2 7,9 18 10 31 17 WSW 1018,8 - 0,0
20.11.2017 08:00:00 10,9 7,2 12 6 16 9 SW 1018,2 - 0,0
20.11.2017 07:00:00 11,1 6,8 11 6 18 10 E 1018,1 - 0,0
20.11.2017 06:00:00 11,8 8,3 13 7 16 9 ESE 1017,9 - 0,0
20.11.2017 05:00:00 12,3 9,1 6 4 10 5 SE 1017,8 - 0,0
20.11.2017 04:00:00 12,3 8,9 0 0 11 6 N 1017,4 - 0,0
20.11.2017 03:00:00 12,3 9,1 8 4 13 7 WSW 1017,4 - 0,0
20.11.2017 02:00:00 12,2 8,8 3 2 10 5 W 1017,0 - 0,0
20.11.2017 01:00:00 12,3 8,6 6 4 14 8 W 1017,1 - 0,0
20.11.2017 00:00:00 11,8 8,1 13 7 20 11 W 1016,6 - 0,0
19.11.2017 23:00:00 11,9 7,6 8 4 18 10 ENE 1016,1 - 0,0
19.11.2017 22:00:00 11,6 8,1 13 7 17 9 E 1015,4 - 0,0
19.11.2017 21:00:00 12,4 9,0 8 5 13 7 ESE 1014,9 - 0,0
19.11.2017 20:00:00 12,5 9,1 10 5 17 9 ENE 1014,8 - 0,0
19.11.2017 19:00:00 12,8 9,1 5 3 12 7 SW 1014,1 20 0,0
19.11.2017 18:00:00 12,8 8,9 8 4 19 10 WSW 1013,6 - 0,0
19.11.2017 17:00:00 13,1 9,2 12 7 24 13 WSW 1013,0 - 0,0
19.11.2017 16:00:00 13,9 9,3 14 8 31 17 WSW 1012,3 - 0,0
19.11.2017 15:00:00 14,7 9,9 16 9 31 17 W 1012,0 - 0,0
19.11.2017 14:00:00 15,3 9,6 16 9 31 17 W 1012,0 - 0,0
19.11.2017 13:00:00 15,9 2,7 8 4 14 8 ENE 1012,8 20 0,0
19.11.2017 12:00:00 15,3 3,4 8 4 16 9 ENE 1013,5 - 0,0
19.11.2017 11:00:00 14,8 5,6 9 5 15 8 ENE 1013,9 - 0,0
19.11.2017 10:00:00 14,1 5,4 6 3 12 7 E 1014,0 - 0,0
19.11.2017 09:00:00 12,8 5,9 6 3 16 9 SE 1014,3 - 0,0
19.11.2017 08:00:00 12,4 5,8 10 6 13 7 SE 1014,4 - 0,0
19.11.2017 07:00:00 11,9 5,5 0 0 9 5 N 1014,2 20 0,0
19.11.2017 06:00:00 12,3 6,6 3 2 15 8 WNW 1014,3 - 0,0
19.11.2017 05:00:00 12,3 7,2 12 7 16 9 S 1015,0 - 0,0
19.11.2017 04:00:00 12,2 8,5 11 6 18 10 SW 1015,5 20 0,0
19.11.2017 03:00:00 12,4 8,3 13 7 20 11 WSW 1015,7 - 0,0
19.11.2017 02:00:00 12,3 7,8 11 6 15 8 WSW 1016,0 - 0,0
19.11.2017 01:00:00 12,9 8,0 0 0 7 4 N 1016,3 - 0,0
19.11.2017 00:00:00 12,9 8,0 4 2 5 3 SSE 1016,9 - 0,0
18.11.2017 23:00:00 12,9 8,0 2 1 4 2 ENE 1017,2 - 0,0
18.11.2017 22:00:00 13,3 7,9 4 2 5 3 SW 1017,1 - 0,0
18.11.2017 21:00:00 13,3 8,1 2 1 4 2 WNW 1017,0 - 0,0
18.11.2017 20:00:00 13,7 8,3 3 1 5 3 SW 1016,9 - 0,0
18.11.2017 19:00:00 13,7 7,7 0 0 12 7 N 1016,7 20 0,0
18.11.2017 18:00:00 13,8 7,6 7 4 18 10 NE 1016,4 - 0,0
18.11.2017 17:00:00 14,2 7,9 11 6 17 9 NE 1015,9 - 0,0
18.11.2017 16:00:00 15,1 7,9 11 6 23 13 NE 1015,7 20 0,0
18.11.2017 15:00:00 15,2 8,4 18 10 34 18 NE 1015,5 - 0,0
18.11.2017 14:00:00 14,9 7,9 28 15 36 20 NNE 1015,4 - 0,0
18.11.2017 13:00:00 15,7 7,5 20 11 29 16 NE 1015,5 20 0,0
18.11.2017 12:00:00 16,1 8,3 15 8 24 13 ENE 1015,9 - 0,0
18.11.2017 11:00:00 15,0 8,9 14 8 20 11 ENE 1016,4 - 0,0
18.11.2017 10:00:00 14,0 9,0 13 7 19 10 ENE 1016,3 20 0,0
18.11.2017 09:00:00 13,0 8,9 10 5 15 8 E 1016,3 - 0,0
18.11.2017 08:00:00 11,9 8,4 13 7 17 9 E 1016,0 - 0,0
18.11.2017 07:00:00 12,4 8,3 12 6 17 9 E 1015,2 20 0,0
18.11.2017 06:00:00 12,7 8,4 13 7 17 9 E 1014,9 - 0,0
18.11.2017 05:00:00 13,2 8,3 4 2 10 5 E 1015,4 - 0,0
18.11.2017 04:00:00 13,7 8,7 10 6 12 6 S 1015,2 20 0,0
18.11.2017 03:00:00 13,7 8,5 7 4 14 8 S 1015,5 - 0,0
18.11.2017 02:00:00 13,7 8,5 10 6 16 9 SSE 1015,8 - 0,0
18.11.2017 01:00:00 13,8 8,6 12 7 17 9 SE 1016,0 - 0,0
18.11.2017 00:00:00 13,4 8,0 14 8 17 9 SE 1016,3 - 0,0
17.11.2017 23:00:00 12,8 8,1 11 6 13 7 E 1016,2 - 0,0
17.11.2017 22:00:00 13,1 8,2 10 6 12 7 E 1016,1 - 0,0
17.11.2017 21:00:00 13,6 8,6 7 4 11 6 ESE 1015,9 - 0,0
17.11.2017 20:00:00 13,3 8,6 7 4 10 6 E 1015,7 - 0,0
17.11.2017 19:00:00 13,6 8,4 7 4 14 7 E 1015,4 20 0,0
17.11.2017 18:00:00 14,4 8,8 7 4 13 7 NE 1015,3 - 0,0
17.11.2017 17:00:00 14,7 8,9 8 5 17 9 NE 1014,9 - 0,0
17.11.2017 16:00:00 15,7 8,9 10 5 19 10 ENE 1014,6 - 0,0
17.11.2017 15:00:00 15,6 8,8 15 8 24 13 NE 1014,5 - 0,0
17.11.2017 14:00:00 16,4 8,9 21 11 28 15 ENE 1014,9 - 0,0
17.11.2017 13:00:00 15,7 8,4 17 9 24 13 NE 1015,5 - 0,0
17.11.2017 12:00:00 15,3 8,5 14 8 21 11 NE 1015,6 - 0,0
17.11.2017 11:00:00 15,4 8,2 13 7 28 15 ENE 1016,3 - 0,0
17.11.2017 10:00:00 14,2 8,4 18 10 23 12 ENE 1016,5 20 0,0
17.11.2017 09:00:00 13,4 8,5 16 9 20 11 ENE 1016,2 - 0,0
17.11.2017 08:00:00 13,0 8,1 11 6 18 10 E 1015,9 - 0,0
17.11.2017 07:00:00 13,3 7,5 10 6 14 7 SE 1015,4 - 0,0
17.11.2017 06:00:00 13,2 7,6 8 4 11 6 ESE 1015,3 - 0,0
17.11.2017 05:00:00 13,2 7,4 4 2 9 5 E 1015,2 - 0,0
17.11.2017 04:00:00 13,7 7,5 0 0 11 6 N 1015,6 - 0,0
17.11.2017 03:00:00 14,0 7,3 8 4 14 7 SSE 1016,0 - 0,0
17.11.2017 02:00:00 13,9 7,0 11 6 14 8 SSE 1016,2 - 0,0
17.11.2017 01:00:00 13,8 6,9 10 5 17 9 SSE 1016,6 - 0,0
17.11.2017 00:00:00 13,9 7,0 9 5 16 8 SSE 1017,0 - 0,0
16.11.2017 23:00:00 14,0 7,3 10 5 16 9 SE 1017,1 - 0,0
16.11.2017 22:00:00 13,8 7,1 5 3 16 9 SE 1017,2 - 0,0
16.11.2017 21:00:00 13,4 7,4 16 8 22 12 SSE 1016,9 - 0,0
16.11.2017 20:00:00 13,5 7,9 10 5 13 7 SSE 1016,7 - 0,0
16.11.2017 19:00:00 13,3 7,9 7 4 13 7 SE 1016,7 - 0,0
16.11.2017 18:00:00 13,4 7,6 8 4 13 7 ENE 1016,5 - 0,0
16.11.2017 17:00:00 14,2 7,7 7 4 14 7 ENE 1016,4 - 0,0
16.11.2017 16:00:00 14,6 8,1 13 7 22 12 NE 1016,4 30 0,0
16.11.2017 15:00:00 14,4 7,9 18 10 29 15 NE 1016,5 - 0,0
16.11.2017 14:00:00 14,7 8,0 23 13 34 18 NE 1016,4 - 0,0
16.11.2017 13:00:00 15,0 7,3 20 11 41 22 NNE 1016,7 30 0,0
16.11.2017 12:00:00 14,7 6,8 34 18 44 24 NE 1017,3 - 0,0
16.11.2017 11:00:00 15,3 7,1 19 10 33 18 ENE 1017,7 - 0,0
16.11.2017 10:00:00 13,9 6,7 24 13 31 17 ENE 1017,8 30 0,0
16.11.2017 09:00:00 12,4 6,0 26 14 32 17 E 1017,4 - 0,0
16.11.2017 08:00:00 10,9 5,6 22 12 34 18 E 1017,5 - 0,0
16.11.2017 07:00:00 10,2 5,8 23 12 37 20 E 1017,1 20 0,0
16.11.2017 06:00:00 10,7 6,4 25 13 38 20 E 1016,8 - 0,0
16.11.2017 05:00:00 10,8 6,3 24 13 49 26 E 1016,4 - 0,0
16.11.2017 04:00:00 11,1 6,2 25 14 44 24 E 1016,3 20 0,0
16.11.2017 03:00:00 11,3 6,8 31 17 44 24 ENE 1016,5 - 0,0
16.11.2017 02:00:00 11,3 6,8 30 16 45 25 E 1016,5 - 0,0
16.11.2017 01:00:00 12,1 7,4 37 20 50 27 E 1016,7 - 0,0
16.11.2017 00:00:00 12,5 6,5 40 22 51 28 E 1016,5 - 0,0
15.11.2017 23:00:00 12,6 7,3 35 19 49 27 E 1016,7 - 0,0
15.11.2017 22:00:00 12,8 6,8 31 17 44 24 ENE 1016,6 - 0,0
15.11.2017 21:00:00 12,5 6,5 34 18 48 26 E 1016,2 - 0,0
15.11.2017 20:00:00 12,7 7,2 32 17 42 23 ENE 1015,9 - 0,0
15.11.2017 19:00:00 12,8 6,4 31 17 40 22 E 1015,7 20 0,0
15.11.2017 18:00:00 12,6 6,4 20 11 37 20 E 1015,6 - 0,0
15.11.2017 17:00:00 13,0 5,6 22 12 35 19 ESE 1015,4 - 0,0
15.11.2017 16:00:00 13,4 6,0 27 15 42 23 E 1015,3 20 0,0
15.11.2017 15:00:00 13,7 6,5 37 20 48 26 E 1014,9 - 0,0
15.11.2017 14:00:00 13,3 6,2 28 15 42 23 E 1014,6 - 0,0
15.11.2017 13:00:00 13,3 6,2 30 16 52 28 E 1014,9 20 0,0
15.11.2017 12:00:00 13,6 5,7 34 18 55 30 E 1015,1 - 0,0
15.11.2017 11:00:00 14,4 4,7 37 20 55 30 ENE 1015,1 - 0,0
15.11.2017 10:00:00 13,5 3,6 39 21 53 29 E 1014,6 - 0,0
15.11.2017 09:00:00 12,9 2,7 28 15 37 20 E 1014,1 - 0,0
15.11.2017 08:00:00 12,0 3,0 26 14 40 22 ESE 1013,8 - 0,0
15.11.2017 07:00:00 11,8 2,8 26 14 41 22 E 1013,9 20 0,0
15.11.2017 06:00:00 11,8 2,8 26 14 34 18 E 1013,2 - 0,0
15.11.2017 05:00:00 12,1 2,3 20 11 30 16 ESE 1012,7 - 0,0
15.11.2017 04:00:00 11,6 2,3 20 11 30 16 ESE 1013,1 20 0,0
15.11.2017 03:00:00 11,5 2,0 24 13 40 22 E 1013,3 - 0,0
15.11.2017 02:00:00 11,1 1,6 23 12 40 22 ESE 1013,5 - 0,0
15.11.2017 01:00:00 11,6 1,2 30 16 41 22 E 1013,4 - 0,0
15.11.2017 00:00:00 11,4 1,9 25 13 38 20 E 1013,9 - 0,0
14.11.2017 23:00:00 11,2 2,0 26 14 33 18 E 1013,9 - 0,0
14.11.2017 22:00:00 11,1 1,9 23 12 34 18 E 1014,0 - 0,0
14.11.2017 21:00:00 11,1 2,4 24 13 36 20 E 1013,9 - 0,0
14.11.2017 20:00:00 11,1 2,6 25 14 40 21 E 1013,9 - 0,0
14.11.2017 19:00:00 10,8 2,9 27 15 43 23 E 1013,8 20 0,0
14.11.2017 18:00:00 10,9 3,0 35 19 45 24 E 1013,0 - 0,0
14.11.2017 17:00:00 11,4 3,2 37 20 50 27 E 1012,6 - 0,0
14.11.2017 16:00:00 11,9 2,9 29 16 54 29 E 1012,1 20 0,0
14.11.2017 15:00:00 12,5 3,7 35 19 76 41 E 1011,8 - 0,0
14.11.2017 14:00:00 13,1 4,0 54 29 77 42 ENE 1011,4 - 0,0
14.11.2017 13:00:00 11,7 4,4 44 24 66 36 E 1011,3 20 0,0
14.11.2017 12:00:00 9,5 5,3 59 32 87 47 ENE 1012,0 - 0,2

tt = Température de l'air
td = dewpoint
ff = Vitesse du vent
fx = gusts
dd = Direction du vent
ppp = reduced air pressure
vv = visibility
rr = Quantités de précipitations

stations d'obs. à proximité